Time,TemperatureF,DewpointF,PressureIn,WindDirection,WindDirectionDegrees,WindSpeedMPH,WindSpeedGustMPH,Humidity,HourlyPrecipIn,Conditions,Clouds,dailyrainin,SoftwareType,DateUTC
2013-01-23 00:02:00,8.6,-5.8,30.28,SSW,199,0.0,0.0,51,0.00,,,0.00,VWS V14.01,2013-01-23 05:02:00,
2013-01-23 00:03:00,8.6,-5.8,30.28,SSW,199,0.0,0.0,51,0.00,,,0.00,VWS V14.01,2013-01-23 05:03:00,
2013-01-23 00:04:00,8.6,-5.8,30.28,SSW,203,0.0,0.0,51,0.00,,,0.00,VWS V14.01,2013-01-23 05:04:00,
2013-01-23 00:06:00,8.4,-6.0,30.28,SSW,206,0.0,0.0,51,0.00,,,0.00,VWS V14.01,2013-01-23 05:06:00,
2013-01-23 00:12:00,8.4,-6.0,30.28,SSW,206,0.0,0.0,51,0.00,,,0.00,VWS V14.01,2013-01-23 05:12:00,
2013-01-23 00:18:00,8.1,-6.3,30.28,SSW,207,0.0,0.0,51,0.00,,,0.00,VWS V14.01,2013-01-23 05:18:00,
2013-01-23 00:23:00,8.1,-6.3,30.28,SSW,207,0.0,0.0,51,0.00,,,0.00,VWS V14.01,2013-01-23 05:23:00,
2013-01-23 00:29:00,8.2,-6.2,30.28,SSW,207,0.0,0.0,51,0.00,,,0.00,VWS V14.01,2013-01-23 05:29:00,
2013-01-23 00:34:00,8.4,-6.0,30.28,SSW,207,0.0,0.0,51,0.00,,,0.00,VWS V14.01,2013-01-23 05:34:00,
2013-01-23 00:41:00,8.4,-6.0,30.28,SSW,207,0.0,0.0,51,0.00,,,0.00,VWS V14.01,2013-01-23 05:41:00,
2013-01-23 00:47:00,8.1,-6.3,30.28,SSW,207,0.0,0.0,51,0.00,,,0.00,VWS V14.01,2013-01-23 05:47:00,
2013-01-23 00:53:00,8.2,-6.2,30.28,SSW,207,0.0,0.0,51,0.00,,,0.00,VWS V14.01,2013-01-23 05:53:00,
2013-01-23 00:58:00,7.9,-6.5,30.28,SSW,208,0.0,0.0,51,0.00,,,0.00,VWS V14.01,2013-01-23 05:58:00,
2013-01-23 01:04:00,7.5,-6.8,30.28,SSW,207,0.0,0.0,51,0.00,,,0.00,VWS V14.01,2013-01-23 06:04:00,
2013-01-23 01:09:00,7.5,-6.8,30.28,SSW,207,0.0,0.0,51,0.00,,,0.00,VWS V14.01,2013-01-23 06:09:00,
2013-01-23 01:15:00,7.7,-6.7,30.28,SSW,207,0.0,0.0,51,0.00,,,0.00,VWS V14.01,2013-01-23 06:15:00,
2013-01-23 01:21:00,7.7,-6.7,30.28,SSW,207,0.0,0.0,51,0.00,,,0.00,VWS V14.01,2013-01-23 06:21:00,
2013-01-23 01:26:00,7.9,-6.5,30.28,SSW,205,0.0,0.0,51,0.00,,,0.00,VWS V14.01,2013-01-23 06:26:00,
2013-01-23 01:32:00,7.9,-6.5,30.28,SSW,207,0.0,0.0,51,0.00,,,0.00,VWS V14.01,2013-01-23 06:32:00,
2013-01-23 01:37:00,7.5,-6.8,30.28,SSW,207,0.0,0.0,51,0.00,,,0.00,VWS V14.01,2013-01-23 06:37:00,
2013-01-23 01:43:00,7.2,-7.2,30.28,SSW,207,0.0,0.0,51,0.00,,,0.00,VWS V14.01,2013-01-23 06:43:00,
2013-01-23 01:48:00,7.3,-7.0,30.28,SSW,207,0.0,0.0,51,0.00,,,0.00,VWS V14.01,2013-01-23 06:48:00,
2013-01-23 01:54:00,7.7,-6.7,30.28,SSW,207,0.0,0.0,51,0.00,,,0.00,VWS V14.01,2013-01-23 06:54:00,
2013-01-23 01:59:00,7.7,-6.7,30.28,SSW,207,0.0,0.0,51,0.00,,,0.00,VWS V14.01,2013-01-23 06:59:00,
2013-01-23 02:04:00,7.5,-6.8,30.28,SSW,207,0.0,0.0,51,0.00,,,0.00,VWS V14.01,2013-01-23 07:04:00,
2013-01-23 02:09:00,7.7,-6.7,30.28,SSW,207,0.0,0.0,51,0.00,,,0.00,VWS V14.01,2013-01-23 07:09:00,
2013-01-23 02:17:00,8.1,-6.3,30.28,SSW,207,0.0,0.0,51,0.00,,,0.00,VWS V14.01,2013-01-23 07:17:00,
2013-01-23 02:22:00,8.1,-6.3,30.28,SSW,207,0.0,0.0,51,0.00,,,0.00,VWS V14.01,2013-01-23 07:22:00,
2013-01-23 02:27:00,8.2,-6.2,30.28,SSW,209,0.0,0.0,51,0.00,,,0.00,VWS V14.01,2013-01-23 07:27:00,
2013-01-23 02:32:00,8.4,-6.0,30.28,SSW,209,0.0,0.0,51,0.00,,,0.00,VWS V14.01,2013-01-23 07:32:00,
2013-01-23 02:38:00,8.4,-6.0,30.28,SSW,209,0.0,0.0,51,0.00,,,0.00,VWS V14.01,2013-01-23 07:38:00,
2013-01-23 02:43:00,8.4,-6.0,30.28,SSW,209,0.0,0.0,51,0.00,,,0.00,VWS V14.01,2013-01-23 07:43:00,
2013-01-23 02:49:00,8.6,-5.8,30.28,SSW,209,0.0,0.0,51,0.00,,,0.00,VWS V14.01,2013-01-23 07:49:00,
2013-01-23 02:54:00,8.8,-5.6,30.28,SSW,209,0.0,0.0,51,0.00,,,0.00,VWS V14.01,2013-01-23 07:54:00,
2013-01-23 03:01:00,8.8,-5.6,30.28,SSW,209,0.0,0.0,51,0.00,,,0.00,VWS V14.01,2013-01-23 08:01:00,
2013-01-23 03:06:00,8.8,-5.6,30.28,SSW,209,0.0,0.0,51,0.00,,,0.00,VWS V14.01,2013-01-23 08:06:00,
2013-01-23 03:11:00,9.0,-5.5,30.28,SSW,209,0.0,0.0,51,0.00,,,0.00,VWS V14.01,2013-01-23 08:11:00,
2013-01-23 03:17:00,9.1,-5.3,30.28,SSW,209,0.0,0.0,51,0.00,,,0.00,VWS V14.01,2013-01-23 08:17:00,
2013-01-23 03:23:00,9.1,-5.3,30.28,SSW,209,0.0,0.0,51,0.00,,,0.00,VWS V14.01,2013-01-23 08:23:00,
2013-01-23 03:28:00,9.1,-5.3,30.28,SSW,209,0.0,0.0,51,0.00,,,0.00,VWS V14.01,2013-01-23 08:28:00,
2013-01-23 03:33:00,9.1,-5.3,30.28,SSW,209,0.0,0.0,51,0.00,,,0.00,VWS V14.01,2013-01-23 08:33:00,
2013-01-23 03:39:00,9.1,-5.3,30.28,SSW,209,0.0,0.0,51,0.00,,,0.00,VWS V14.01,2013-01-23 08:39:00,
2013-01-23 03:44:00,9.1,-5.3,30.28,SSW,209,0.0,0.0,51,0.00,,,0.00,VWS V14.01,2013-01-23 08:44:00,
2013-01-23 03:49:00,9.1,-5.3,30.28,SSW,209,0.0,0.0,51,0.00,,,0.00,VWS V14.01,2013-01-23 08:49:00,
2013-01-23 03:56:00,9.1,-5.3,30.28,SSW,209,0.0,0.0,51,0.00,,,0.00,VWS V14.01,2013-01-23 08:56:00,
2013-01-23 04:01:00,9.1,-5.3,30.28,SSW,209,0.0,0.0,51,0.00,,,0.00,VWS V14.01,2013-01-23 09:01:00,
2013-01-23 04:06:00,9.1,-5.3,30.28,SSW,209,0.0,0.0,51,0.00,,,0.00,VWS V14.01,2013-01-23 09:06:00,
2013-01-23 04:12:00,9.1,-5.3,30.28,SSW,209,0.0,0.0,51,0.00,,,0.00,VWS V14.01,2013-01-23 09:12:00,
2013-01-23 04:17:00,9.1,-5.3,30.28,SSW,209,0.0,0.0,51,0.00,,,0.00,VWS V14.01,2013-01-23 09:17:00,
2013-01-23 04:22:00,9.1,-5.3,30.28,SSW,209,0.0,0.0,51,0.00,,,0.00,VWS V14.01,2013-01-23 09:22:00,
2013-01-23 04:27:00,9.1,-5.3,30.28,SSW,209,0.0,0.0,51,0.00,,,0.00,VWS V14.01,2013-01-23 09:27:00,
2013-01-23 04:33:00,9.1,-5.3,30.28,SSW,209,0.0,0.0,51,0.00,,,0.00,VWS V14.01,2013-01-23 09:33:00,
2013-01-23 04:38:00,9.1,-5.3,30.25,SSW,209,0.0,0.0,51,0.00,,,0.00,VWS V14.01,2013-01-23 09:38:00,
2013-01-23 04:44:00,9.1,-5.3,30.25,SSW,209,0.0,0.0,51,0.00,,,0.00,VWS V14.01,2013-01-23 09:44:00,
2013-01-23 04:49:00,9.1,-5.3,30.25,SSW,209,0.0,0.0,51,0.00,,,0.00,VWS V14.01,2013-01-23 09:49:00,
2013-01-23 04:55:00,9.1,-5.3,30.25,SSW,209,0.0,0.0,51,0.00,,,0.00,VWS V14.01,2013-01-23 09:55:00,
2013-01-23 05:00:00,9.1,-5.3,30.25,South,179,0.0,0.0,51,0.00,,,0.00,VWS V14.01,2013-01-23 10:00:00,
2013-01-23 05:05:00,9.1,-5.3,30.25,South,172,0.0,0.0,51,0.00,,,0.00,VWS V14.01,2013-01-23 10:05:00,
2013-01-23 05:11:00,9.1,-5.3,30.25,South,172,0.0,0.0,51,0.00,,,0.00,VWS V14.01,2013-01-23 10:11:00,
2013-01-23 05:16:00,9.1,-5.3,30.25,South,172,0.0,0.0,51,0.00,,,0.00,VWS V14.01,2013-01-23 10:16:00,
2013-01-23 05:21:00,9.1,-5.3,30.25,South,172,0.0,0.0,51,0.00,,,0.00,VWS V14.01,2013-01-23 10:21:00,
2013-01-23 05:27:00,9.1,-5.3,30.25,South,172,0.0,0.0,51,0.00,,,0.00,VWS V14.01,2013-01-23 10:27:00,
2013-01-23 05:32:00,9.1,-5.3,30.25,South,172,0.0,0.0,51,0.00,,,0.00,VWS V14.01,2013-01-23 10:32:00,
2013-01-23 05:38:00,9.1,-5.3,30.25,South,172,0.0,0.0,51,0.00,,,0.00,VWS V14.01,2013-01-23 10:38:00,
2013-01-23 05:43:00,9.1,-5.3,30.25,South,172,0.0,0.0,51,0.00,,,0.00,VWS V14.01,2013-01-23 10:43:00,
2013-01-23 05:48:00,9.1,-5.3,30.25,South,172,0.0,0.0,51,0.00,,,0.00,VWS V14.01,2013-01-23 10:48:00,
2013-01-23 05:53:00,9.1,-5.3,30.25,South,172,0.0,0.0,51,0.00,,,0.00,VWS V14.01,2013-01-23 10:53:00,
2013-01-23 05:59:00,9.1,-5.3,30.25,South,172,0.0,0.0,51,0.00,,,0.00,VWS V14.01,2013-01-23 10:59:00,
2013-01-23 06:04:00,9.1,-5.3,30.25,South,172,0.0,0.0,51,0.00,,,0.00,VWS V14.01,2013-01-23 11:04:00,
2013-01-23 06:09:00,9.1,-5.3,30.25,South,172,0.0,0.0,51,0.00,,,0.00,VWS V14.01,2013-01-23 11:09:00,
2013-01-23 06:15:00,9.1,-5.3,30.25,South,172,0.0,0.0,51,0.00,,,0.00,VWS V14.01,2013-01-23 11:15:00,
2013-01-23 06:21:00,9.1,-5.3,30.25,South,172,0.0,0.0,51,0.00,,,0.00,VWS V14.01,2013-01-23 11:21:00,
2013-01-23 06:26:00,9.1,-5.3,30.25,South,172,0.0,0.0,51,0.00,,,0.00,VWS V14.01,2013-01-23 11:26:00,
2013-01-23 06:31:00,9.1,-5.3,30.25,SW,214,0.0,0.0,51,0.00,,,0.00,VWS V14.01,2013-01-23 11:31:00,
2013-01-23 06:36:00,9.1,-5.3,30.25,SSW,213,0.0,0.0,51,0.00,,,0.00,VWS V14.01,2013-01-23 11:36:00,
2013-01-23 06:41:00,9.1,-5.3,30.25,SW,218,0.0,0.0,51,0.00,,,0.00,VWS V14.01,2013-01-23 11:41:00,
2013-01-23 06:47:00,9.1,-5.3,30.25,SSW,202,0.0,0.0,51,0.00,,,0.00,VWS V14.01,2013-01-23 11:47:00,
2013-01-23 06:52:00,9.1,-5.3,30.25,SSW,195,0.0,0.0,51,0.00,,,0.00,VWS V14.01,2013-01-23 11:52:00,
2013-01-23 06:57:00,9.1,-5.3,30.25,SSW,207,0.0,0.0,51,0.00,,,0.00,VWS V14.01,2013-01-23 11:57:00,
2013-01-23 07:03:00,9.1,-5.3,30.25,SSW,210,0.0,0.0,51,0.00,,,0.00,VWS V14.01,2013-01-23 12:03:00,
2013-01-23 07:09:00,9.1,-5.3,30.25,South,181,0.0,0.0,51,0.00,,,0.00,VWS V14.01,2013-01-23 12:09:00,
2013-01-23 07:15:00,9.1,-5.3,30.25,SSW,203,0.0,0.0,51,0.00,,,0.00,VWS V14.01,2013-01-23 12:15:00,
2013-01-23 07:20:00,9.1,-5.3,30.25,SSW,203,0.0,0.0,51,0.00,,,0.00,VWS V14.01,2013-01-23 12:20:00,
2013-01-23 07:26:00,9.1,-5.3,30.25,SSW,209,0.0,0.0,51,0.00,,,0.00,VWS V14.01,2013-01-23 12:26:00,
2013-01-23 07:32:00,9.1,-5.3,30.25,SSW,196,0.0,0.0,51,0.00,,,0.00,VWS V14.01,2013-01-23 12:32:00,
2013-01-23 07:38:00,9.1,-5.3,30.25,SSW,193,0.0,0.0,51,0.00,,,0.00,VWS V14.01,2013-01-23 12:38:00,
2013-01-23 07:44:00,9.1,-5.3,30.25,South,177,0.0,0.0,51,0.00,,,0.00,VWS V14.01,2013-01-23 12:44:00,
2013-01-23 07:50:00,9.1,-5.3,30.25,South,189,0.0,0.0,51,0.00,,,0.00,VWS V14.01,2013-01-23 12:50:00,
2013-01-23 07:55:00,9.1,-5.3,30.25,SSW,203,0.0,0.0,51,0.00,,,0.00,VWS V14.01,2013-01-23 12:55:00,
2013-01-23 08:00:00,9.1,-5.3,30.25,SSW,210,0.0,0.0,51,0.00,,,0.00,VWS V14.01,2013-01-23 13:00:00,
2013-01-23 08:06:00,9.1,-5.3,30.25,SSW,204,0.0,0.0,51,0.00,,,0.00,VWS V14.01,2013-01-23 13:06:00,
2013-01-23 08:11:00,9.1,-5.3,30.25,South,189,0.0,0.0,51,0.00,,,0.00,VWS V14.01,2013-01-23 13:11:00,
2013-01-23 08:16:00,9.1,-5.3,30.25,SSW,211,0.0,0.0,51,0.00,,,0.00,VWS V14.01,2013-01-23 13:16:00,
2013-01-23 08:22:00,9.1,-5.3,30.25,South,178,0.0,0.0,51,0.00,,,0.00,VWS V14.01,2013-01-23 13:22:00,
2013-01-23 08:28:00,9.1,-5.3,30.22,SSW,202,0.0,0.0,51,0.00,,,0.00,VWS V14.01,2013-01-23 13:28:00,
2013-01-23 08:33:00,9.1,-5.3,30.22,SSW,208,0.0,0.0,51,0.00,,,0.00,VWS V14.01,2013-01-23 13:33:00,
2013-01-23 08:39:00,9.1,-5.3,30.25,SSW,212,0.0,0.0,51,0.00,,,0.00,VWS V14.01,2013-01-23 13:39:00,
2013-01-23 08:44:00,9.1,-5.3,30.25,SW,220,0.0,0.0,51,0.00,,,0.00,VWS V14.01,2013-01-23 13:44:00,
2013-01-23 08:50:00,9.1,-5.3,30.25,SSW,194,0.0,0.0,51,0.00,,,0.00,VWS V14.01,2013-01-23 13:50:00,
2013-01-23 08:56:00,9.1,-5.3,30.22,SW,215,0.0,0.0,51,0.00,,,0.00,VWS V14.01,2013-01-23 13:56:00,
2013-01-23 09:01:00,9.1,-5.3,30.22,South,185,3.4,5.6,51,0.00,,,0.00,VWS V14.01,2013-01-23 14:01:00,
2013-01-23 09:06:00,9.1,-5.3,30.22,SW,224,0.0,0.0,51,0.00,,,0.00,VWS V14.01,2013-01-23 14:06:00,
2013-01-23 09:11:00,9.1,-5.3,30.22,South,182,0.0,0.0,51,0.00,,,0.00,VWS V14.01,2013-01-23 14:11:00,
2013-01-23 09:16:00,9.1,-5.3,30.22,SSW,203,0.0,0.0,51,0.00,,,0.00,VWS V14.01,2013-01-23 14:16:00,
2013-01-23 09:22:00,9.1,-5.3,30.22,SSW,211,0.0,0.0,51,0.00,,,0.00,VWS V14.01,2013-01-23 14:22:00,
2013-01-23 09:28:00,9.1,-5.3,30.25,SW,223,0.0,0.0,51,0.00,,,0.00,VWS V14.01,2013-01-23 14:28:00,
2013-01-23 09:33:00,9.1,-5.3,30.25,South,179,0.0,0.0,51,0.00,,,0.00,VWS V14.01,2013-01-23 14:33:00,
2013-01-23 09:39:00,12.0,-2.6,30.25,SSW,209,0.0,0.0,51,0.00,,,0.00,VWS V14.01,2013-01-23 14:39:00,
2013-01-23 09:46:00,12.4,-2.3,30.25,SSW,195,0.0,0.0,51,0.00,,,0.00,VWS V14.01,2013-01-23 14:46:00,
2013-01-23 09:51:00,12.7,-2.0,30.25,SSW,209,0.0,0.0,51,0.00,,,0.00,VWS V14.01,2013-01-23 14:51:00,
2013-01-23 09:56:00,12.9,-1.8,30.25,SSW,210,0.0,0.0,51,0.00,,,0.00,VWS V14.01,2013-01-23 14:56:00,
2013-01-23 10:01:00,13.3,-1.5,30.25,SSW,205,0.0,0.0,51,0.00,,,0.00,VWS V14.01,2013-01-23 15:01:00,
2013-01-23 10:07:00,13.6,-1.1,30.25,South,181,0.0,0.0,51,0.00,,,0.00,VWS V14.01,2013-01-23 15:07:00,
2013-01-23 10:13:00,14.4,2.3,30.25,SW,220,0.0,5.6,58,0.00,,,0.00,VWS V14.01,2013-01-23 15:13:00,
2013-01-23 10:18:00,14.5,2.1,30.25,South,190,0.0,0.0,57,0.00,,,0.00,VWS V14.01,2013-01-23 15:18:00,
2013-01-23 10:23:00,14.5,2.1,30.25,SSW,195,0.0,0.0,57,0.00,,,0.00,VWS V14.01,2013-01-23 15:23:00,
2013-01-23 10:29:00,14.9,2.0,30.25,South,188,0.0,0.0,56,0.00,,,0.00,VWS V14.01,2013-01-23 15:29:00,
2013-01-23 10:34:00,14.7,1.9,30.25,South,188,0.0,0.0,56,0.00,,,0.00,VWS V14.01,2013-01-23 15:34:00,
2013-01-23 10:39:00,15.6,2.7,30.22,SSW,210,0.0,0.0,56,0.00,,,0.00,VWS V14.01,2013-01-23 15:39:00,
2013-01-23 10:44:00,15.8,2.5,30.22,SW,214,0.0,0.0,55,0.00,,,0.00,VWS V14.01,2013-01-23 15:44:00,
2013-01-23 10:49:00,16.2,2.5,30.22,SSW,203,0.0,0.0,54,0.00,,,0.00,VWS V14.01,2013-01-23 15:49:00,
2013-01-23 10:56:00,16.7,3.0,30.25,SW,227,0.0,0.0,54,0.00,,,0.00,VWS V14.01,2013-01-23 15:56:00,
2013-01-23 11:01:00,16.9,3.1,30.25,South,178,0.0,0.0,54,0.00,,,0.00,VWS V14.01,2013-01-23 16:01:00,
2013-01-23 11:07:00,16.9,3.1,30.25,SW,218,0.0,0.0,54,0.00,,,0.00,VWS V14.01,2013-01-23 16:07:00,
2013-01-23 11:12:00,17.2,3.1,30.25,SW,214,0.0,0.0,53,0.00,,,0.00,VWS V14.01,2013-01-23 16:12:00,
2013-01-23 11:18:00,17.6,3.4,30.25,SW,230,0.0,0.0,53,0.00,,,0.00,VWS V14.01,2013-01-23 16:18:00,
2013-01-23 11:24:00,18.3,3.7,30.25,SW,216,0.0,0.0,52,0.00,,,0.00,VWS V14.01,2013-01-23 16:24:00,
2013-01-23 11:31:00,18.5,3.8,30.25,SE,141,0.0,0.0,52,0.00,,,0.00,VWS V14.01,2013-01-23 16:31:00,
2013-01-23 11:36:00,18.3,3.2,30.25,SSW,198,0.0,0.0,51,0.00,,,0.00,VWS V14.01,2013-01-23 16:36:00,
2013-01-23 11:42:00,18.5,2.5,30.22,SW,222,0.0,0.0,49,0.00,,,0.00,VWS V14.01,2013-01-23 16:42:00,
2013-01-23 11:48:00,19.2,3.6,30.22,SSW,204,0.0,0.0,50,0.00,,,0.00,VWS V14.01,2013-01-23 16:48:00,
2013-01-23 11:53:00,19.2,3.2,30.22,SSW,205,0.0,0.0,49,0.00,,,0.00,VWS V14.01,2013-01-23 16:53:00,
2013-01-23 11:58:00,19.2,3.2,30.22,SW,222,0.0,0.0,49,0.00,,,0.00,VWS V14.01,2013-01-23 16:58:00,
2013-01-23 12:03:00,19.8,3.7,30.22,South,191,0.0,0.0,49,0.00,,,0.00,VWS V14.01,2013-01-23 17:03:00,
2013-01-23 12:08:00,20.3,4.2,30.22,SSW,207,0.0,0.0,49,0.00,,,0.00,VWS V14.01,2013-01-23 17:08:00,
2013-01-23 12:13:00,20.3,4.2,30.22,SW,219,0.0,0.0,49,0.00,,,0.00,VWS V14.01,2013-01-23 17:13:00,
2013-01-23 12:19:00,20.3,3.8,30.22,SW,230,0.0,0.0,48,0.00,,,0.00,VWS V14.01,2013-01-23 17:19:00,
2013-01-23 12:24:00,20.7,4.5,30.22,SSW,206,0.0,0.0,49,0.00,,,0.00,VWS V14.01,2013-01-23 17:24:00,
2013-01-23 12:29:00,21.2,5.0,30.22,South,186,3.4,5.6,49,0.00,,,0.00,VWS V14.01,2013-01-23 17:29:00,
2013-01-23 12:35:00,21.0,4.4,30.22,WSW,240,0.0,0.0,48,0.00,,,0.00,VWS V14.01,2013-01-23 17:35:00,
2013-01-23 12:41:00,21.2,4.6,30.19,WSW,247,4.0,6.7,48,0.00,,,0.00,VWS V14.01,2013-01-23 17:41:00,
2013-01-23 12:46:00,21.4,4.3,30.19,SW,234,0.0,0.0,47,0.00,,,0.00,VWS V14.01,2013-01-23 17:46:00,
2013-01-23 12:52:00,21.4,3.8,30.19,SSW,211,0.0,0.0,46,0.00,,,0.00,VWS V14.01,2013-01-23 17:52:00,
2013-01-23 12:58:00,21.6,4.0,30.19,SW,218,0.0,0.0,46,0.00,,,0.00,VWS V14.01,2013-01-23 17:58:00,
2013-01-23 13:03:00,21.9,4.8,30.19,SW,216,0.0,0.0,47,0.00,,,0.00,VWS V14.01,2013-01-23 18:03:00,
2013-01-23 13:08:00,21.9,4.3,30.19,SSW,211,0.0,0.0,46,0.00,,,0.00,VWS V14.01,2013-01-23 18:08:00,
2013-01-23 13:13:00,21.4,3.8,30.19,South,186,8.1,15.7,46,0.00,,,0.00,VWS V14.01,2013-01-23 18:13:00,
2013-01-23 13:19:00,21.6,4.0,30.19,WSW,242,5.4,15.7,46,0.00,,,0.00,VWS V14.01,2013-01-23 18:19:00,
2013-01-23 13:24:00,21.6,3.5,30.16,SW,224,5.4,12.3,45,0.00,,,0.00,VWS V14.01,2013-01-23 18:24:00,
2013-01-23 13:31:00,21.9,3.8,30.16,SW,214,4.0,13.4,45,0.00,,,0.00,VWS V14.01,2013-01-23 18:31:00,
2013-01-23 13:37:00,22.1,4.5,30.16,SW,228,3.4,10.1,46,0.00,,,0.00,VWS V14.01,2013-01-23 18:37:00,
2013-01-23 13:43:00,21.9,3.8,30.16,SW,221,5.4,14.5,45,0.00,,,0.00,VWS V14.01,2013-01-23 18:43:00,
2013-01-23 13:48:00,21.9,3.8,30.16,South,183,8.1,14.5,45,0.00,,,0.00,VWS V14.01,2013-01-23 18:48:00,
2013-01-23 13:54:00,21.7,3.7,30.16,South,186,6.0,12.3,45,0.00,,,0.00,VWS V14.01,2013-01-23 18:54:00,
2013-01-23 13:59:00,21.6,3.5,30.16,SSW,210,6.0,12.3,45,0.00,,,0.00,VWS V14.01,2013-01-23 18:59:00,
2013-01-23 14:04:00,21.7,3.7,30.16,SSW,203,4.0,12.3,45,0.00,,,0.00,VWS V14.01,2013-01-23 19:04:00,
2013-01-23 14:11:00,22.3,4.2,30.13,SW,221,4.0,12.3,45,0.00,,,0.00,VWS V14.01,2013-01-23 19:11:00,
2013-01-23 14:16:00,21.9,3.8,30.13,SW,231,4.7,8.9,45,0.00,,,0.00,VWS V14.01,2013-01-23 19:16:00,
2013-01-23 14:22:00,22.3,4.2,30.13,SSW,206,5.4,10.1,45,0.00,,,0.00,VWS V14.01,2013-01-23 19:22:00,
2013-01-23 14:27:00,21.9,3.8,30.13,SW,233,4.7,8.9,45,0.00,,,0.00,VWS V14.01,2013-01-23 19:27:00,
2013-01-23 14:33:00,21.9,3.8,30.13,SW,229,4.0,12.3,45,0.00,,,0.00,VWS V14.01,2013-01-23 19:33:00,
2013-01-23 14:38:00,21.7,3.7,30.13,SW,218,5.4,12.3,45,0.00,,,0.00,VWS V14.01,2013-01-23 19:38:00,
2013-01-23 14:43:00,21.6,3.5,30.13,SW,214,9.4,15.7,45,0.00,,,0.00,VWS V14.01,2013-01-23 19:43:00,
2013-01-23 14:49:00,21.2,3.7,30.13,SSW,213,5.4,8.9,46,0.00,,,0.00,VWS V14.01,2013-01-23 19:49:00,
2013-01-23 14:54:00,21.0,3.5,30.13,SW,218,4.0,10.1,46,0.00,,,0.00,VWS V14.01,2013-01-23 19:54:00,
2013-01-23 15:00:00,20.7,3.2,30.13,South,185,4.0,8.9,46,0.00,,,0.00,VWS V14.01,2013-01-23 20:00:00,
2013-01-23 15:06:00,20.5,3.0,30.13,SW,217,8.1,13.4,46,0.00,,,0.00,VWS V14.01,2013-01-23 20:06:00,
2013-01-23 15:11:00,20.1,2.7,30.13,WSW,239,6.0,10.1,46,0.00,,,0.00,VWS V14.01,2013-01-23 20:11:00,
2013-01-23 15:16:00,19.8,2.3,30.13,SSW,210,8.1,13.4,46,0.00,,,0.00,VWS V14.01,2013-01-23 20:16:00,
2013-01-23 15:22:00,19.6,2.6,30.13,SW,230,0.0,6.7,47,0.00,,,0.00,VWS V14.01,2013-01-23 20:22:00,
2013-01-23 15:27:00,19.8,2.8,30.13,SW,214,4.0,10.1,47,0.00,,,0.00,VWS V14.01,2013-01-23 20:27:00,
2013-01-23 15:33:00,19.2,2.3,30.13,SW,227,5.4,8.9,47,0.00,,,0.00,VWS V14.01,2013-01-23 20:33:00,
2013-01-23 15:39:00,18.9,2.0,30.10,SSW,208,5.4,12.3,47,0.00,,,0.00,VWS V14.01,2013-01-23 20:39:00,
2013-01-23 15:44:00,18.5,1.6,30.10,SW,220,5.4,26.3,47,0.00,,,0.00,VWS V14.01,2013-01-23 20:44:00,
2013-01-23 15:51:00,18.1,1.3,30.10,SSW,211,5.4,8.9,47,0.00,,,0.00,VWS V14.01,2013-01-23 20:51:00,
2013-01-23 15:56:00,18.1,1.3,30.10,SW,225,4.0,10.1,47,0.00,,,0.00,VWS V14.01,2013-01-23 20:56:00,
2013-01-23 16:02:00,18.1,1.8,30.10,SW,226,4.0,13.4,48,0.00,,,0.00,VWS V14.01,2013-01-23 21:02:00,
2013-01-23 16:08:00,18.3,1.9,30.10,SSW,208,4.7,10.1,48,0.00,,,0.00,VWS V14.01,2013-01-23 21:08:00,
2013-01-23 16:14:00,18.1,1.8,30.10,SW,225,3.4,10.1,48,0.00,,,0.00,VWS V14.01,2013-01-23 21:14:00,
2013-01-23 16:19:00,17.8,1.4,30.10,SW,230,8.7,14.5,48,0.00,,,0.00,VWS V14.01,2013-01-23 21:19:00,
2013-01-23 16:24:00,17.4,1.5,30.10,SSW,211,5.4,12.3,49,0.00,,,0.00,VWS V14.01,2013-01-23 21:24:00,
2013-01-23 16:30:00,17.1,1.2,30.10,SSW,210,3.4,13.4,49,0.00,,,0.00,VWS V14.01,2013-01-23 21:30:00,
2013-01-23 16:36:00,17.1,1.6,30.10,WSW,248,4.7,8.9,50,0.00,,,0.00,VWS V14.01,2013-01-23 21:36:00,
2013-01-23 16:41:00,16.9,1.5,30.10,SW,221,4.7,7.8,50,0.00,,,0.00,VWS V14.01,2013-01-23 21:41:00,
2013-01-23 16:46:00,16.7,1.3,30.10,SSW,202,4.0,7.8,50,0.00,,,0.00,VWS V14.01,2013-01-23 21:46:00,
2013-01-23 16:52:00,16.5,1.6,30.10,South,177,4.0,7.8,51,0.00,,,0.00,VWS V14.01,2013-01-23 21:52:00,
2013-01-23 16:57:00,16.2,1.2,30.10,SSW,212,4.0,13.4,51,0.00,,,0.00,VWS V14.01,2013-01-23 21:57:00,
2013-01-23 17:02:00,16.0,1.1,30.10,SW,218,5.4,12.3,51,0.00,,,0.00,VWS V14.01,2013-01-23 22:02:00,
2013-01-23 17:08:00,15.4,1.0,30.07,SW,220,0.0,12.3,52,0.00,,,0.00,VWS V14.01,2013-01-23 22:08:00,
2013-01-23 17:13:00,15.3,1.2,30.07,SW,234,4.7,7.8,53,0.00,,,0.00,VWS V14.01,2013-01-23 22:13:00,
2013-01-23 17:19:00,14.9,0.9,30.07,South,191,4.0,8.9,53,0.00,,,0.00,VWS V14.01,2013-01-23 22:19:00,
2013-01-23 17:25:00,14.7,0.7,30.07,South,183,4.7,13.4,53,0.00,,,0.00,VWS V14.01,2013-01-23 22:25:00,
2013-01-23 17:31:00,14.7,0.7,30.07,SW,220,4.0,7.8,53,0.00,,,0.00,VWS V14.01,2013-01-23 22:31:00,
2013-01-23 17:36:00,14.5,0.9,30.07,ESE,122,4.0,7.8,54,0.00,,,0.00,VWS V14.01,2013-01-23 22:36:00,
2013-01-23 17:42:00,14.7,1.1,30.07,SSW,209,4.0,12.3,54,0.00,,,0.00,VWS V14.01,2013-01-23 22:42:00,
2013-01-23 17:47:00,14.7,1.1,30.07,South,188,3.4,6.7,54,0.00,,,0.00,VWS V14.01,2013-01-23 22:47:00,
2013-01-23 17:52:00,14.7,1.5,30.07,SW,224,6.0,15.7,55,0.00,,,0.00,VWS V14.01,2013-01-23 22:52:00,
2013-01-23 17:57:00,14.7,1.5,30.07,South,185,6.0,13.4,55,0.00,,,0.00,VWS V14.01,2013-01-23 22:57:00,
2013-01-23 18:02:00,14.7,1.5,30.07,SSW,193,6.0,17.9,55,0.00,,,0.00,VWS V14.01,2013-01-23 23:02:00,
2013-01-23 18:07:00,14.9,2.0,30.07,South,188,5.4,10.1,56,0.00,,,0.00,VWS V14.01,2013-01-23 23:07:00,
2013-01-23 18:13:00,14.9,2.0,30.07,SW,215,4.0,10.1,56,0.00,,,0.00,VWS V14.01,2013-01-23 23:13:00,
2013-01-23 18:18:00,14.9,2.4,30.07,South,190,3.4,10.1,57,0.00,,,0.00,VWS V14.01,2013-01-23 23:18:00,
2013-01-23 18:23:00,15.1,2.6,30.07,South,177,4.0,12.3,57,0.00,,,0.00,VWS V14.01,2013-01-23 23:23:00,
2013-01-23 18:28:00,15.1,3.0,30.07,SSW,213,4.7,15.7,58,0.00,,,0.00,VWS V14.01,2013-01-23 23:28:00,
2013-01-23 18:33:00,15.1,3.0,30.07,SSW,210,4.0,8.9,58,0.00,,,0.00,VWS V14.01,2013-01-23 23:33:00,
2013-01-23 18:38:00,15.1,3.0,30.07,WSW,247,4.7,13.4,58,0.00,,,0.00,VWS V14.01,2013-01-23 23:38:00,
2013-01-23 18:44:00,15.1,3.3,30.07,SSE,154,6.0,10.1,59,0.00,,,0.00,VWS V14.01,2013-01-23 23:44:00,
2013-01-23 18:49:00,15.1,3.7,30.07,SW,227,6.0,10.1,60,0.00,,,0.00,VWS V14.01,2013-01-23 23:49:00,
2013-01-23 18:55:00,15.1,3.7,30.07,SSE,153,6.0,10.1,60,0.00,,,0.00,VWS V14.01,2013-01-23 23:55:00,
2013-01-23 19:00:00,15.1,4.1,30.07,SSW,199,4.0,12.3,61,0.00,,,0.00,VWS V14.01,2013-01-24 00:00:00,
2013-01-23 19:06:00,15.3,4.2,30.07,SSW,200,5.4,10.1,61,0.00,,,0.00,VWS V14.01,2013-01-24 00:06:00,
2013-01-23 19:11:00,15.3,4.6,30.07,SW,217,3.4,6.7,62,0.00,,,0.00,VWS V14.01,2013-01-24 00:11:00,
2013-01-23 19:17:00,15.4,4.8,30.07,SW,223,4.0,6.7,62,0.00,,,0.00,VWS V14.01,2013-01-24 00:17:00,
2013-01-23 19:22:00,15.4,5.1,30.07,SSW,201,5.4,8.9,63,0.00,,,0.00,VWS V14.01,2013-01-24 00:22:00,
2013-01-23 19:27:00,15.4,5.1,30.07,SSW,210,3.4,10.1,63,0.00,,,0.00,VWS V14.01,2013-01-24 00:27:00,
2013-01-23 19:33:00,15.6,5.3,30.07,SW,222,0.0,5.6,63,0.00,,,0.00,VWS V14.01,2013-01-24 00:33:00,
2013-01-23 19:38:00,15.6,5.6,30.07,SW,218,3.4,6.7,64,0.00,,,0.00,VWS V14.01,2013-01-24 00:38:00,
2013-01-23 19:43:00,15.6,5.6,30.07,SW,219,0.0,0.0,64,0.00,,,0.00,VWS V14.01,2013-01-24 00:43:00,
2013-01-23 19:49:00,15.6,6.0,30.07,SSW,206,0.0,0.0,65,0.00,,,0.00,VWS V14.01,2013-01-24 00:49:00,
2013-01-23 19:54:00,15.8,6.1,30.07,SSW,209,0.0,0.0,65,0.00,,,0.00,VWS V14.01,2013-01-24 00:54:00,
2013-01-23 19:59:00,15.8,6.1,30.07,SW,227,0.0,0.0,65,0.00,,,0.00,VWS V14.01,2013-01-24 00:59:00,
2013-01-23 20:04:00,15.8,6.1,30.07,SW,220,0.0,0.0,65,0.00,,,0.00,VWS V14.01,2013-01-24 01:04:00,
2013-01-23 20:11:00,15.8,6.5,30.07,SSW,210,0.0,0.0,66,0.00,,,0.00,VWS V14.01,2013-01-24 01:11:00,
2013-01-23 20:16:00,15.8,6.5,30.07,SW,229,0.0,0.0,66,0.00,,,0.00,VWS V14.01,2013-01-24 01:16:00,
2013-01-23 20:22:00,16.0,6.6,30.07,SW,225,0.0,0.0,66,0.00,,,0.00,VWS V14.01,2013-01-24 01:22:00,
2013-01-23 20:27:00,16.0,6.6,30.07,SW,231,0.0,0.0,66,0.00,,,0.00,VWS V14.01,2013-01-24 01:27:00,
2013-01-23 20:33:00,16.0,7.0,30.07,SW,230,0.0,0.0,67,0.00,,,0.00,VWS V14.01,2013-01-24 01:33:00,
2013-01-23 20:38:00,16.0,7.0,30.07,SW,230,0.0,0.0,67,0.00,,,0.00,VWS V14.01,2013-01-24 01:38:00,
2013-01-23 20:44:00,16.2,7.2,30.07,SW,223,0.0,0.0,67,0.00,,,0.00,VWS V14.01,2013-01-24 01:44:00,
2013-01-23 20:51:00,16.3,7.6,30.07,SW,218,0.0,0.0,68,0.00,,,0.00,VWS V14.01,2013-01-24 01:51:00,
2013-01-23 20:56:00,16.5,8.1,30.07,SW,223,0.0,0.0,69,0.00,,,0.00,VWS V14.01,2013-01-24 01:56:00,
2013-01-23 21:01:00,16.5,8.1,30.07,SW,223,0.0,0.0,69,0.00,,,0.00,VWS V14.01,2013-01-24 02:01:00,
2013-01-23 21:06:00,16.5,8.1,30.07,SW,229,0.0,6.7,69,0.00,,,0.00,VWS V14.01,2013-01-24 02:06:00,
2013-01-23 21:12:00,16.5,8.5,30.07,SW,230,0.0,5.6,70,0.00,,,0.00,VWS V14.01,2013-01-24 02:12:00,
2013-01-23 21:18:00,16.7,8.6,30.07,SW,230,3.4,5.6,70,0.00,,,0.00,VWS V14.01,2013-01-24 02:18:00,
2013-01-23 21:24:00,17.1,9.0,30.07,WNW,286,0.0,6.7,70,0.00,,,0.00,VWS V14.01,2013-01-24 02:24:00,
2013-01-23 21:29:00,17.4,9.6,30.07,WNW,299,3.4,7.8,71,0.00,,,0.00,VWS V14.01,2013-01-24 02:29:00,
2013-01-23 21:34:00,17.6,9.8,30.07,NW,307,4.0,7.8,71,0.00,,,0.00,VWS V14.01,2013-01-24 02:34:00,
2013-01-23 21:39:00,17.8,10.3,30.10,NW,314,6.0,10.1,72,0.00,,,0.00,VWS V14.01,2013-01-24 02:39:00,
2013-01-23 21:44:00,17.8,10.6,30.10,NW,310,4.7,7.8,73,0.00,,,0.00,VWS V14.01,2013-01-24 02:44:00,
2013-01-23 21:50:00,17.6,10.7,30.10,NW,319,4.0,6.7,74,0.00,,,0.00,VWS V14.01,2013-01-24 02:50:00,
2013-01-23 21:56:00,17.6,11.0,30.10,NW,316,3.4,5.6,75,0.00,,,0.00,VWS V14.01,2013-01-24 02:56:00,
2013-01-23 22:01:00,17.4,10.9,30.10,NW,321,0.0,0.0,75,0.00,,,0.00,VWS V14.01,2013-01-24 03:01:00,
2013-01-23 22:06:00,17.4,10.6,30.10,NW,324,4.0,6.7,74,0.00,,,0.00,VWS V14.01,2013-01-24 03:06:00,
2013-01-23 22:12:00,17.4,10.6,30.10,NNW,328,4.0,8.9,74,0.00,,,0.00,VWS V14.01,2013-01-24 03:12:00,
2013-01-23 22:17:00,17.2,10.4,30.10,NNW,345,4.0,10.1,74,0.00,,,0.00,VWS V14.01,2013-01-24 03:17:00,
2013-01-23 22:22:00,17.2,10.1,30.10,North,357,6.0,10.1,73,0.00,,,0.00,VWS V14.01,2013-01-24 03:22:00,
2013-01-23 22:28:00,16.7,9.3,30.10,NNW,346,4.7,8.9,72,0.00,,,0.00,VWS V14.01,2013-01-24 03:28:00,
2013-01-23 22:33:00,16.3,8.6,30.10,North,350,0.0,6.7,71,0.00,,,0.00,VWS V14.01,2013-01-24 03:33:00,
2013-01-23 22:38:00,16.5,8.8,30.10,North,353,4.0,6.7,71,0.00,,,0.00,VWS V14.01,2013-01-24 03:38:00,
2013-01-23 22:43:00,16.5,9.1,30.13,NW,320,4.7,8.9,72,0.00,,,0.00,VWS V14.01,2013-01-24 03:43:00,
2013-01-23 22:49:00,16.2,8.7,30.13,North,2,4.7,8.9,72,0.00,,,0.00,VWS V14.01,2013-01-24 03:49:00,
2013-01-23 22:54:00,15.8,8.7,30.13,NNW,331,8.7,15.7,73,0.00,,,0.00,VWS V14.01,2013-01-24 03:54:00,
2013-01-23 23:01:00,15.4,8.4,30.13,NNW,341,8.1,19.0,73,0.00,,,0.00,VWS V14.01,2013-01-24 04:01:00,
2013-01-23 23:06:00,15.3,8.2,30.13,North,353,5.4,10.1,73,0.00,,,0.00,VWS V14.01,2013-01-24 04:06:00,
2013-01-23 23:11:00,14.9,7.8,30.13,NNW,344,5.4,13.4,73,0.00,,,0.00,VWS V14.01,2013-01-24 04:11:00,
2013-01-23 23:17:00,15.3,8.2,30.13,North,0,5.4,10.1,73,0.00,,,0.00,VWS V14.01,2013-01-24 04:17:00,
2013-01-23 23:22:00,15.3,8.5,30.13,NNW,346,7.4,13.4,74,0.00,,,0.00,VWS V14.01,2013-01-24 04:22:00,
2013-01-23 23:27:00,15.3,8.5,30.16,North,3,6.0,13.4,74,0.00,,,0.00,VWS V14.01,2013-01-24 04:27:00,
2013-01-23 23:32:00,15.1,8.3,30.16,North,357,8.7,14.5,74,0.00,,,0.00,VWS V14.01,2013-01-24 04:32:00,
2013-01-23 23:37:00,14.9,8.1,30.16,NNE,19,8.1,13.4,74,0.00,,,0.00,VWS V14.01,2013-01-24 04:37:00,
2013-01-23 23:43:00,14.7,7.9,30.16,North,357,6.0,15.7,74,0.00,,,0.00,VWS V14.01,2013-01-24 04:43:00,
2013-01-23 23:48:00,14.7,7.9,30.16,North,5,5.4,15.7,74,0.00,,,0.00,VWS V14.01,2013-01-24 04:48:00,
2013-01-23 23:53:00,14.7,7.9,30.19,North,9,8.1,13.4,74,0.00,,,0.00,VWS V14.01,2013-01-24 04:53:00,
2013-01-23 23:59:00,14.4,7.6,30.19,North,357,11.4,20.1,74,0.00,,,0.00,VWS V14.01,2013-01-24 04:59:00,